Location: Newark
(41.8083°N, 72.2500°W)
Time: 21:02:55
(UTC+00:00)

Courier 1B - Pass Details

Date: 07 December 2021
Orbit: 962 x 1209 km, 28.3° (Epoch: 19 January)

Event Time Altitude Azimuth Distance (km) Brightness Sun altitude
Rises 20:00:01 0° 230° (SW) 4,097 13.0 10.7°
Reaches altitude 10° 20:03:30 10° 217° (SW) 3,119 12.7 10.3°
Maximum altitude 20:09:24 24° 167° (SSE) 2,207 9.9 9.5°
Drops below altitude 10° 20:15:08 10° 117° (ESE) 3,021 9.9 8.7°
Sets 20:18:27 0° 104° (ESE) 3,940 10.3 8.2°
